This is the latest recevied weather packets stored in our database for station/object W3TMB. If no packets are shown the sender has not sent any weather packets the latest 10 day(s).
| Time | Temp. | Humidity | Pressure | Rain* | Wind** | Luminosity | Snow |
|---|---|---|---|---|---|---|---|
| 1777632994 | 1.67° C | 99% | 1012.5 hPa | 0 mm | - | 38 W/m² | - |
| 1777632690 | 1.67° C | 99% | 1012.2 hPa | 0 mm | - | 30 W/m² | - |
| 1777632386 | 1.67° C | 99% | 1012 hPa | 0 mm | - | 26 W/m² | - |
| 1777632084 | 1.11° C | 99% | 1012.1 hPa | 0 mm | - | 20 W/m² | - |
| 1777631781 | 1.11° C | 99% | 1012 hPa | 0 mm | - | 16 W/m² | - |
| 1777631479 | 0.56° C | 99% | 1012 hPa | 0 mm | - | 13 W/m² | - |
| 1777631175 | 0.56° C | 99% | 1011.9 hPa | 0 mm | - | 11 W/m² | - |
| 1777630873 | 0.56° C | 99% | 1012.1 hPa | 0 mm | - | 7 W/m² | - |
| 1777630568 | 0.56° C | 99% | 1012 hPa | 0 mm | - | 5 W/m² | - |
| 1777630265 | 1.11° C | 99% | 1012 hPa | 0 mm | - | 3 W/m² | - |
| 1777629964 | 1.11° C | 99% | 1011.9 hPa | 0 mm | - | 0 W/m² | - |
| 1777629661 | 1.11° C | 99% | 1012.2 hPa | 0 mm | - | 0 W/m² | - |
| 1777629357 | 1.11° C | 99% | 1011.8 hPa | 0 mm | - | 0 W/m² | - |
| 1777629052 | 1.11° C | 99% | 1012 hPa | 0 mm | - | 0 W/m² | - |
| 1777628750 | 1.67° C | 99% | 1011.8 hPa | 0 mm | - | 0 W/m² | - |
| 1777628446 | 1.67° C | 99% | 1012.1 hPa | 0 mm | - | 0 W/m² | - |
| 1777628142 | 1.67° C | 99% | 1011.8 hPa | 0 mm | - | 0 W/m² | - |
| 1777627838 | 1.67° C | 99% | 1012 hPa | 0 mm | - | 0 W/m² | - |
| 1777627537 | 1.67° C | 99% | 1011.7 hPa | 0 mm | - | 0 W/m² | - |
| 1777627232 | 1.67° C | 99% | 1011.8 hPa | 0 mm | - | 0 W/m² | - |
| 1777626929 | 1.67° C | 99% | 1011.6 hPa | 0 mm | - | 0 W/m² | - |
| 1777626625 | 1.67° C | 99% | 1011.8 hPa | 0 mm | - | 0 W/m² | - |
| 1777626321 | 1.67° C | 99% | 1011.7 hPa | 0 mm | - | 0 W/m² | - |
| 1777626020 | 1.67° C | 99% | 1011.5 hPa | 0 mm | - | 0 W/m² | - |
| 1777625714 | 1.67° C | 99% | 1011.6 hPa | 0 mm | - | 0 W/m² | - |
* Rain latest hour (hover to see other rain measurements)
** Current wind speed in m/s (hover to see current wind gust speed)